Weather History for Winfield, KS

Change the Weather History Date:

Monday, December 12, 2011

  Actual Average Record
Temperature  
Mean Temperature 44 °F -  
Max Temperature 46 °F 45 °F 62 °F (2004)
Min Temperature 41 °F 26 °F 3 °F (2000)
Degree Days  
Heating Degree Days 22    
Moisture  
Dew Point 31 °F    
Average Humidity 64    
Maximum Humidity 82    
Minimum Humidity 54    
Precipitation  
Precipitation 0.01 in - - ()
Sea Level Pressure  
Sea Level Pressure 30.25 in    
Wind  
Wind Speed 11 mph (SSE)    
Max Wind Speed 14 mph    
Max Gust Speed -    
Visibility 10 miles    
Events Rain    
Averages and records for this station are not official NWS values.
T = Trace of Precipitation, MM = Missing Value Source: NWS Daily Summary

Daily Weather History Graph

Daily Weather History Graph

Search for Another Location

Airport:

Trip Planner

Search our weather history database for the weather conditions in past years. The results will help you decide how hot, cold, wet, or windy it might be!

Date:

Astronomy

Dec. 12, 2011 Rise Set
Actual Time 7:32 AM CST 5:11 PM CST
Civil Twilight 7:03 AM CST 5:40 PM CST
Nautical Twilight 6:30 AM CST 6:12 PM CST
Astronomical Twilight 5:59 AM CST 6:44 PM CST
Moon 7:22 PM CST (12/12) 9:05 AM CST (12/12)
Length of Visible Light 10h 36m
Length of Day
9h 38m
Waning Gibbous, 95% of the Moon is Illuminated
Dec 12
Waning Gibbous
Dec 17
Last Quarter
Dec 24
New
Jan 1
First Quarter
Jan 9
Full

Hourly Weather History & Observations

Time (CST) Temp. Windchill Dew Point Humidity Pressure Visibility Wind Dir Wind Speed Gust Speed Precip Events Conditions
12:54 AM 42.1 °F 35.2 °F 30.0 °F 62% 30.22 in 10.0 mi South 12.7 mph - N/A   Overcast
1:54 AM 42.1 °F 35.7 °F 30.0 °F 62% 30.22 in 10.0 mi South 11.5 mph - N/A   Overcast
2:54 AM 42.1 °F 34.9 °F 28.9 °F 60% 30.22 in 10.0 mi South 13.8 mph - N/A   Overcast
3:54 AM 42.1 °F 35.2 °F 28.9 °F 60% 30.22 in 10.0 mi SSE 12.7 mph - N/A   Overcast
4:54 AM 41.0 °F 33.9 °F 28.9 °F 62% 30.21 in 10.0 mi SSE 12.7 mph - N/A   Overcast
5:51 AM 41.0 °F 34.3 °F 28.4 °F 61% 30.20 in 10.0 mi South 11.5 mph - N/A   Overcast
5:54 AM 41.0 °F 34.3 °F 28.9 °F 62% 30.21 in 10.0 mi SSE 11.5 mph - N/A   Overcast
6:54 AM 41.0 °F 34.7 °F 30.0 °F 65% 30.23 in 10.0 mi SSE 10.4 mph - N/A   Overcast
7:54 AM 42.1 °F 36.6 °F 28.9 °F 60% 30.24 in 10.0 mi SSE 9.2 mph - N/A   Overcast
8:54 AM 43.0 °F 37.2 °F 28.9 °F 58% 30.26 in 10.0 mi SSE 10.4 mph - N/A   Overcast
9:54 AM 44.1 °F 38.6 °F 30.0 °F 58% 30.27 in 10.0 mi SSE 10.4 mph - N/A   Overcast
10:54 AM 44.1 °F 37.4 °F 30.0 °F 58% 30.27 in 10.0 mi SSE 13.8 mph - N/A   Overcast
11:54 AM 45.0 °F 39.7 °F 30.0 °F 56% 30.26 in 10.0 mi SSE 10.4 mph - N/A   Overcast
12:54 PM 46.9 °F - 30.9 °F 54% 30.24 in 10.0 mi South 12.7 mph - N/A   Overcast
1:54 PM 45.0 °F 40.1 °F 30.9 °F 58% 30.22 in 10.0 mi SSE 9.2 mph - N/A   Overcast
2:54 PM 45.0 °F 40.1 °F 30.9 °F 58% 30.24 in 10.0 mi South 9.2 mph - N/A   Overcast
3:54 PM 45.0 °F 39.7 °F 34.0 °F 65% 30.24 in 10.0 mi South 10.4 mph - N/A   Overcast
5:54 PM 44.1 °F 39.0 °F 36.0 °F 73% 30.25 in 10.0 mi South 9.2 mph - N/A   Overcast
6:54 PM 43.0 °F 38.8 °F 36.0 °F 76% 30.27 in 10.0 mi South 6.9 mph - N/A   Overcast
7:54 PM 43.0 °F 39.5 °F 33.1 °F 68% 30.28 in 10.0 mi SSE 5.8 mph - N/A   Overcast
8:54 PM 43.0 °F 39.5 °F 35.1 °F 74% 30.30 in 10.0 mi South 5.8 mph - N/A   Overcast
9:54 PM 42.1 °F 40.2 °F 37.0 °F 82% 30.31 in 8.0 mi South 3.5 mph - 0.01 in Rain Light Rain
10:54 PM 42.1 °F 38.4 °F 35.1 °F 76% 30.28 in 10.0 mi ESE 5.8 mph - 0.00 in   Overcast
11:54 PM 42.1 °F 37.1 °F 35.1 °F 76% 30.30 in 10.0 mi South 8.1 mph - N/A   Overcast